This is the latest recevied weather packets stored in our database for station/object DM4WH-13. If no packets are shown the sender has not sent any weather packets the latest 10 day(s).
| Time | Temp. | Humidity | Pressure | Rain* | Wind** | Luminosity | Snow |
|---|---|---|---|---|---|---|---|
| 1777906519 | 22.22° C | 44% | 1013.9 hPa | 0 mm | 0.45 m/s, 301° | - | - |
| 1777905607 | 22.22° C | 45% | 1013.9 hPa | 0 mm | 0.89 m/s, 288° | - | - |
| 1777902907 | 22.22° C | 48% | 1014.2 hPa | 0 mm | 0.45 m/s, 0° | - | - |
| 1777901718 | 22.78° C | 47% | 1014.3 hPa | 0 mm | 0.89 m/s, 280° | - | - |
| 1777901119 | 22.22° C | 48% | 1014.3 hPa | 0 mm | 0.89 m/s, 312° | - | - |
| 1777900806 | 22.22° C | 47% | 1014.3 hPa | 0 mm | 0.45 m/s, 308° | - | - |
| 1777898406 | 22.78° C | 44% | 1014.4 hPa | 0 mm | 0.45 m/s, 300° | - | - |
| 1777898118 | 22.78° C | 46% | 1014.3 hPa | 0 mm | 0.89 m/s, 294° | - | - |
| 1777897805 | 22.22° C | 47% | 1014.3 hPa | 0 mm | 0.89 m/s, 317° | - | - |
| 1777897530 | 22.78° C | 46% | 1014.3 hPa | 0 mm | 0.45 m/s, 298° | - | - |
| 1777897218 | 22.78° C | 44% | 1014.3 hPa | 0 mm | 0.89 m/s, 293° | - | - |
| 1777896905 | 22.78° C | 45% | 1014.3 hPa | 0 mm | 1.34 m/s, 287° | - | - |
| 1777896618 | 22.78° C | 46% | 1014.3 hPa | 0 mm | 0.45 m/s, 258° | - | - |
| 1777896017 | 22.78° C | 44% | 1014.3 hPa | 0 mm | 0.89 m/s, 292° | - | - |
| 1777895418 | 23.89° C | 42% | 1014.4 hPa | 0 mm | 0.89 m/s, 340° | - | - |
| 1777894818 | 23.89° C | 37% | 1014.4 hPa | 0 mm | 0.45 m/s, 205° | - | - |
| 1777894218 | 22.78° C | 40% | 1014.5 hPa | 0 mm | 0.45 m/s, 172° | - | - |
| 1777893905 | 22.78° C | 39% | 1014.6 hPa | 0 mm | 0 m/s | - | - |
| 1777893618 | 22.78° C | 40% | 1014.6 hPa | 0 mm | 0.45 m/s, 276° | - | - |
| 1777893305 | 22.78° C | 39% | 1014.6 hPa | 0 mm | 0.45 m/s, 307° | - | - |
| 1777893018 | 25° C | 38% | 1014.6 hPa | 0 mm | 0.45 m/s, 352° | - | - |
| 1777892705 | 23.89° C | 42% | 1014.7 hPa | 0 mm | 0.45 m/s, 47° | - | - |
| 1777892418 | 22.78° C | 40% | 1014.7 hPa | 0 mm | 0.45 m/s, 100° | - | - |
| 1777892106 | 22.78° C | 41% | 1014.8 hPa | 0 mm | 0.45 m/s, 295° | - | - |
| 1777891818 | 22.78° C | 41% | 1014.9 hPa | 0 mm | 0.45 m/s, 265° | - | - |
* Rain latest hour (hover to see other rain measurements)
** Current wind speed in m/s (hover to see current wind gust speed)